MECHERIA current weather conditions

sailwx.info

Air temperature 22.0° C
Dewpoint 7.0° C

Last reported at 2015-Mar-04 14:00 UTC.
Time now 2015-Mar-04 16:53 UTC

Location: N 34°56' E 000°26'.
View on Google Maps.

See reports from other nearby stations

  
Tides and Currents Weather Stations Pressure Air Temp Water Temp Dewpoint Dewpoint Depression Visibility Wind Speed Wind Dir Waves Ship Positions
date/time (UTC)wind fromknots sea level pressurealtimeterstation pressurevisibilityair tempwater tempwave heightnotes
2015-Mar-04 14:00 22.0
2015-Mar-04 13:00 040 4 21.0
2015-Mar-04 12:00 360 6 21.0
2015-Mar-04 11:00 190 10 19.0
2015-Mar-04 10:00 210 16 17.0
2015-Mar-04 09:00 210 12 14.0
2015-Mar-04 08:00 200 14 11.0
2015-Mar-04 07:00 190 16 9.0
2015-Mar-04 06:00 200 14 10.0
2015-Mar-03 18:00 170 10 19.0
2015-Mar-03 17:00 170 10 21.0
2015-Mar-03 16:00 190 14 22.0
2015-Mar-03 15:00 190 14 23.0
2015-Mar-03 14:00 190 10 22.0
2015-Mar-03 13:00 190 10 21.0
2015-Mar-03 12:00 210 10 20.0
2015-Mar-03 11:00 210 10 18.0
2015-Mar-03 10:00 200 12 16.0
2015-Mar-03 09:00 200 16 14.0
2015-Mar-03 08:00 210 8 12.0
2015-Mar-03 07:00 220 10 10.0
2015-Mar-03 06:00 220 10 10.0
2015-Mar-02 18:00 190 4 18.0
2015-Mar-02 17:00 20.0
2015-Mar-02 16:00 20.0